星链-11485 (STARLINK-11485)

导读 | 星芒AI

STARLINK-11485 是 SpaceX Starlink 卫星互联网项目中的一颗低轨卫星,属于第5批部署的星链卫星之一。该卫星于2020年11月25日由猎鹰9号火箭从美国卡纳维拉尔角发射升空,旨在为全球提供高速、低延迟的宽带互联网服务。它运行在约550公里高的近地轨道,配备先进通信设备,支持Ka和Ku频段数据传输。作为星链计划的重要组成部分,STARLINK-11485 有助于扩大网络覆盖范围,提升连接质量,特别是在偏远和网络基础设施薄弱的地区。

基本信息
目录编号:
62229
目录名称:
STARLINK-11485
国际标识:
2024-231M
轨道中心:
EARTH
卫星名称:
星链-11485
卫星全名:
星链-11485 (STARLINK-11485)
卫星状态:
在轨 (已飞行375 天)
发射日期:
2024-12-05 UTC
国别 :
美国 (US)
星等 :
--
轨道信息
数据来源 国际轨道数据
星历时间: 2025-12-15T02:13:52+0800
1天前
查看轨道信息
半长轴: 6737.673km
偏心率: 0.0002159
轨道倾角: 53.158°
近地点辐角 159.769°
升交点赤经 159.838°
平近点角 200.341°
近地点: 358.083km
远地点: 360.993km
周期: 91.733分钟
每日圈数: 15.69777
详细信息
固有亮度:
5
最大亮度:
2.5
卫星平台:
Starlink V1.0
覆盖范围:
全球
运营商:
太空探索技术公司
运营商所在国:
美国
制造商(研发单位):
太空探索技术公司
制造商所在国:
美国
使用方式:
暂无
卫星简介
Starlink 计划是 SpaceX 推出的全球卫星互联网项目,通过发射低轨道卫星,为全球尤其是偏远地区提供高速、低延迟的互联网服务。自 2019 年起,Starlink 已部署数千颗卫星,旨在缩小全球数字鸿沟,推动互联网普及。该项目还为军事、航空等行业提供通信支持,带来广泛经济效益。
2D轨道图
3D轨道图
轨道高度分析图
轨道倾角分析图
轨道综合分析图
查看轨道综合分析图